Regional Weather Roundup
Issued by NWS

Home | Current Version | Previous Version | Graphics & Text | Print | Product List | Glossary Off
Versions: 1 2 3 4 5 6 7 8 9 10 11 12 13 14 15 16 17 18 19 20 21 22 23 24 25 26 27 28 29 30 31 32 33 34 35 36 37 38 39 40 41 42 43 44 45 46 47 48 49 50

000
ASUS43 KFSD 252102
RWRSD

WEATHER ROUNDUP FOR SOUTH DAKOTA
NATIONAL WEATHER SERVICE SIOUX FALLS SD
300 PM CST THU DEC 25 2014

NOTE: "FAIR" INDICATES FEW OR NO CLOUDS BELOW 12,000 FEET WITH NO
SIGNIFICANT WEATHER AND/OR OBSTRUCTIONS TO VISIBILITY.


SDZ001>005-009-010-012>017-252200-
NORTHWEST AND NORTH CENTRAL SOUTH DAKOTA

CITY           SKY/WX    TMP DP  RH WIND       PRES   REMARKS
BUFFALO          N/A     25  20  81 N17       29.76R WCI  12
FAITH            N/A     28  20  71 N20       29.79R WCI  15
MOBRIDGE       CLOUDY    31  25  78 N12       29.78R WCI  22
$$

SDZ012>016-024>037-041>051-057-063-072>074-252200-
SOUTHWEST AND SOUTH CENTRAL SOUTH DAKOTA

CITY           SKY/WX    TMP DP  RH WIND       PRES   REMARKS
RAPID CTY ARPT SNOW      26  23  88 N25       29.76R VSB 1/2 WCI  11
PIERRE         CLOUDY    29  25  85 N20       29.75R WCI  16
CUSTER         LGT SNOW  23  16  74 N9G21     29.63R WCI  13
ELLSWORTH AFB  FLURRIES  25  24  93 N20       29.76  WCI  11
PHILIP         LGT SNOW  29  25  85 N13       29.77R FOG     WCI  19
PINE RIDGE     LGT SNOW  29  25  85 N17G25    29.68R FOG     WCI  17
WINNER         LGT SNOW  31  28  89 N21       29.69R VSB 1   WCI  18
$$

SDZ004>011-016>023-039-040-252200-
NORTHEAST SOUTH DAKOTA

CITY           SKY/WX    TMP DP  RH WIND       PRES   REMARKS
ABERDEEN       PTSUNNY   29  23  78 N17G24    29.81R WCI  17
WATERTOWN      LGT SNOW  30  26  85 NE12      29.72R FOG     WCI  20
$$

SDZ017-020-022-023-036>040-048>070-252200-
SOUTHEAST SOUTH DAKOTA

CITY           SKY/WX    TMP DP  RH WIND       PRES   REMARKS
SIOUX FALLS    CLOUDY    34  28  79 NE20      29.65S WCI  23
HURON          CLOUDY    29  25  85 N14       29.74R WCI  18
CHAMBERLAIN    LGT SNOW  30  28  92 N18       29.71R WCI  17
MITCHELL       CLOUDY    33  31  92 N21       29.69R WCI  21
YANKTON        PTSUNNY   37  28  70 N14       29.63R
$$

ABBREVIATIONS USED IN REMARKS
   TC - TEMPERATURE IN CELSIUS
  WCI - WIND CHILL INDEX
   HX - HEAT INDEX
  VSB - VISIBILITY



USA.gov is the U.S. government's official web portal to all federal, state and local government web resources and services.